Preview of NWS' New Version of Forecast
This preview is not operational and should not be used for support decisions.

Regional Weather Roundup (RWR)

Issued by National Weather Service (NWS)

                            
000
ASUS46 KPQR 151410
RWROR 

OREGON REGIONAL WEATHER ROUNDUP
NATIONAL WEATHER SERVICE PORTLAND OR
700 AM PDT MON JUL 15 2019

NOTE: "FAIR" INDICATES FEW OR NO CLOUDS BELOW 12,000 FEET WITH
NO SIGNIFICANT WEATHER AND/OR OBSTRUCTIONS TO VISIBILITY.

ORZ001>013-151500-
NORTHWEST OREGON

  
CITY           SKY/WX    TMP DP  RH WIND       PRES   REMARKS
ASTORIA        LGT RAIN  62  61  96 CALM      30.07S                  
TILLAMOOK      DRIZZLE   61  59  94 CALM      30.11S                  
NEWPORT        DRIZZLE   59  59 100 CALM      30.13S                  
PORTLAND       CLOUDY    67  57  70 CALM      30.09R                  
VANCOUVER WA   LGT RAIN  65  57  75 N5        30.08R                  
SCAPPOOSE      LGT RAIN  62  58  86 N3        30.08R FOG              
HILLSBORO      LGT RAIN  62  58  86 W6        30.08S                  
AURORA         LGT RAIN  62  55  77 CALM      30.10R                  
MCMINNVILLE    CLOUDY    62  59  90 W5        30.09R                  
SALEM          CLOUDY    63  54  72 S5        30.09R                  
CORVALLIS      LGT RAIN  60  56  86 CALM      30.12R                  
EUGENE         CLOUDY    62  55  77 S7        30.12S                  
$$

ORZ021-028-151500-
SOUTHWEST OREGON

  
CITY           SKY/WX    TMP DP  RH WIND       PRES   REMARKS
NORTH BEND     CLOUDY    61  58  90 SE6       30.13S                  
BROOKINGS      CLOUDY    57  54  89 CALM      30.14R                  
ROSEBURG       PTSUNNY   61  52  72 CALM      30.12S                  
GRANTS PASS    FAIR      59  52  77 CALM      30.16R                  
MEDFORD        SUNNY     63  48  58 CALM      30.12S                  
$$

ORZ014>016-041-151500-
COLUMBIA GORGE

  
CITY           SKY/WX    TMP DP  RH WIND       PRES   REMARKS
TROUTDALE      CLOUDY    65  58  78 CALM      30.09R                  
HOOD RIVER     DRIZZLE   63  57  82 CALM      30.07R                  
THE DALLES     LGT RAIN  67  57  70 NW15G23   30.03R                  
$$

ORZ029>031-041-044-049-050-061>064-502-503-505>511-151500-
EASTERN OREGON

  
CITY           SKY/WX    TMP DP  RH WIND       PRES   REMARKS
MADRAS         PTSUNNY   59  46  63 SE5       30.12R                  
REDMOND        CLOUDY    60  47  61 CALM      30.12R                  
BEND           CLOUDY    61  48  63 VRB6      30.12S                  
PRINEVILLE     CLOUDY    55  46  71 CALM      30.12S                  
KLAMATH FALLS  SUNNY     52  51  97 CALM      30.16S                  
LAKEVIEW       SUNNY     52  46  80 N5        30.19S                  
HERMISTON      MOSUNNY   71  46  40 SW6       29.99S                  
PENDLETON      MOSUNNY   66  43  43 S6        30.03R                  
JOHN DAY       MOSUNNY   59  45  58 E3        30.14R                  
MEACHAM        SUNNY     50  41  71 CALM      30.12S                  
LA GRANDE      SUNNY     57  47  69 NE5       30.09R                  
BAKER CITY     MOSUNNY   58  48  69 SW5       30.10R                  
BURNS          PTSUNNY   56  49  77 CALM      30.14R                  
ROME             N/A     65  42  43 CALM      30.10S                  
ONTARIO        SUNNY     68  53  58 W6        30.02R                  
$$